Regional Weather Roundup
Issued by NWS Grand Forks, ND

Home | Current Version | Previous Version | Graphics & Text | Print | Product List | Glossary On
Versions: 1 2 3 4 5 6 7 8 9 10 11 12 13 14 15 16 17 18 19 20 21 22 23 24 25 26 27 28 29 30 31 32 33 34 35 36 37 38 39 40 41 42 43 44 45 46 47 48 49 50
000
ASUS43 KFGF 270731
RWRFGF
PRAIRIE TO PINES  WEATHER ROUNDUP
NATIONAL WEATHER SERVICE EASTERN NORTH DAKOTA/GRAND FORKS ND
200 AM CDT THU JUL 27 2017

 **SATELLITE DATA USED TO AUGMENT SKY COVER AT AUTOMATED STATIONS**
 *****  WEATHER ACROSS EASTERN NORTH DAKOTA  *****

CITY           SKY/WX    TMP DP  RH WIND       PRES   REMARKS
GRAND FORKS    FAIR      60  59  96 CALM      30.10R
GRAND FRKS AFB FAIR      58  57  95 W3        30.11S
DEVILS LAKE    FAIR      59  58  96 CALM      30.14S
FARGO          FAIR      59  58  96 CALM      30.10R
WAHPETON ARPT  FAIR      59  54  82 CALM      30.11S
$$

 ***** WEATHER ACROSS CENTRAL AND WESTERN NORTH DAKOTA  *****

CITY           SKY/WX    TMP DP  RH WIND       PRES   REMARKS
BISMARCK       FAIR      63  56  78 NE6       30.15S
MINOT          MOCLDY    67  58  72 SE6       30.12S
JAMESTOWN      FAIR      59  56  89 CALM      30.14R
MINOT AFB      MOCLDY    63  56  78 CALM      30.12R
GARRISON         N/A     67  57  70 SE5       30.14R
WILLISTON      CLOUDY    75  53  46 N12       30.15R
DICKINSON      FAIR      63  51  65 E12       30.12S
HETTINGER      FAIR      69  52  54 SE9       30.15R
$$

 *****  OTHER AIRPORT OBSERVATIONS IN OUR AREA  *****

CITY           SKY/WX    TMP DP  RH WIND       PRES   REMARKS
WALHALLA       NOT AVBL
GRAFTON AIRPOR FAIR      61  59  94 W5        30.12S
VALLEY CITY AR FAIR      61  61 100 N3        30.15S
CANDO          NOT AVBL
CAVALIER APRT  FAIR      61  57  88 CALM      30.10S
GWINNER        SUNNY     63  57  82 CALM      30.13R
SHEYENNE NWR     N/A     63  58  85 NW2       29.95S
ROLLA            N/A     54  54 100 W6        30.15F
 ***** THE ABOVE OBSERVATIONS ARE NON NWS ARE NOT QUALITY
       CONTROLLED AND MAY MIS-REPORT RAIN FOR SNOW...
$$

  *****  WEATHER ACROSS NORTHERN MINNESOTA  *****

CITY           SKY/WX    TMP DP  RH WIND       PRES   REMARKS
FLAG ISLAND    FAIR      66  61  82 NW6       30.07R
WARROAD        FAIR      59  55  88 CALM      30.09S
ROSEAU         MOCLDY    64  61  88 W6        30.10R
HALLOCK        FAIR      59  57  94 CALM      30.10R
THF RVR FALLS  FAIR      63  58  83 N5        30.12R
BAUDETTE       FAIR      59  59 100 W3        30.08R
WASKISH        FAIR      64  59  82 CALM      30.09S
CROOKSTON      FAIR      61  57  88 CALM      30.11S
STEPHEN NDAWN    N/A     57  54  88 SE1         N/A
GREENBUSH NDAW   N/A     59  57  94 SW1         N/A
$$
  *****  WEATHER ACROSS CENTRAL AND WEST MINNESOTA  *****

CITY           SKY/WX    TMP DP  RH WIND       PRES   REMARKS
FOSSTON        FAIR      57  54  88 CALM      30.12S
BEMIDJI        FAIR      57  56  94 NW6       30.11R
PARK RAPIDS    FAIR      60  56  86 NW3       30.11R
ELBOW LAKE     FOG       63  61  94 CALM      30.11S VSB 3/4
WADENA         FAIR      59  59 100 N5        30.11R
DETROIT LAKES  FAIR      63  61  94 CALM      30.13S
MOORHEAD       FAIR      63  59  88 CALM      30.11S
FERGUS FALLS   FAIR      64  61  88 N5        30.10S
MORRIS MN      FAIR      64  61  88 N5        30.09S
STAPLES        FAIR      61  57  88 CALM      30.10S
$$
  *****  WEATHER ELSEWHERE ACROSS MINNESOTA  *****

CITY           SKY/WX    TMP DP  RH WIND       PRES   REMARKS
DULUTH         FAIR      63  59  87 NW7       30.06S
INTRNTL FALLS  FAIR      53  51  93 CALM      30.06S FOG
ELY            FAIR      55  54  94 CALM      30.07S
CLOQUET        FAIR      61  55  82 NW5       30.07R
WHEATON        FAIR      61  59  94 CALM      30.13R
BRAINERD       FAIR      60  59  96 N3        30.09S
HIBBING        FAIR      54  54 100 CALM      30.07S
ALEXANDRIA     FAIR      66  62  87 N6        30.11S
SAINT CLOUD    FAIR      62  61  96 N3        30.07R
MINNEAPOLIS    FAIR      70  63  78 N5        30.04S
$$

  *****  WEATHER ACROSS SOUTH DAKOTA  *****

CITY           SKY/WX    TMP DP  RH WIND       PRES   REMARKS
SIOUX FALLS    FAIR      64  62  93 N5        30.09S
BROOKINGS      FAIR      62  60  93 N5        30.12S
WATERTOWN      FAIR      61  58  90 N5        30.12S
HURON          FAIR      61  59  93 CALM      30.10S
SISSETON         N/A     62  60  93 W6        30.11R
ABERDEEN       FAIR      61  58  90 CALM      30.13R
MITCHELL       FAIR      63  62  97 CALM      30.11R
PIERRE         FAIR      65  54  67 SE5       30.11R
MOBRIDGE       FAIR      69  57  65 E15       30.11S
RAPID CITY     FAIR      67  52  58 E3        30.18R
$$

  *****  SOME WEATHER IN NEARBY STATES *****

CITY           SKY/WX    TMP DP  RH WIND       PRES   REMARKS
GLASGOW MT     FAIR      76  47  35 E21       29.99S
GREAT FALLS MT FAIR      74  42  31 SW12      30.01F
CHEYENNE WY    CLOUDY    65  57  75 S3        30.32S
SCOTTSBLUFF NE CLOUDY    68  61  78 E6        30.20S
OMAHA NE       FOG       72  70  93 N6        30.02S VSB 1/4
DES MOINES IA  CLOUDY    73  70  90 N7        29.97F
DAVENPORT IA   MOCLDY    70  69  97 N5        29.95S FOG
CHICAGO IL     CLOUDY    75  71  87 CALM      29.92F
EAU CLAIRE WI  FAIR      62  61  96 CALM      30.01S
LA CROSSE WI   FAIR      71  69  93 NW5       29.99S
$$

  *****  SOME NATIONAL WEATHER *****

CITY           SKY/WX    TMP DP  RH WIND       PRES   REMARKS
LA GUARDIA NY  MOCLDY    68  61  78 SW7       30.08F
RALEIGH NC     FAIR      77  68  73 SW7       30.09F
ATLANTA GA     FAIR      74  67  78 SE3       30.09S
NEW ORLEANS LA FAIR      78  76  93 W5        30.04F
OKLAHOMA CITY  MOCLDY    81  69  67 S10       29.97F
ALBUQUERQUE NM MOCLDY    79  55  43 NE13      30.18F
SALT LAKE CITY MOCLDY    72  60  66 SE8       30.14F
LOS ANGELES CA FAIR      68  64  87 W6        29.99R
BOISE ID       FAIR      73  54  51 SW7       30.09R
SEATTLE WA     FAIR      63  55  75 W3        30.07R
$$

*** WEATHER ACROSS MANITOBA...SASKATCHEWAN AND ONTARIO ***
                ***ONTARIO***

CITY           SKY/WX    TMP DP  RH WIND       PRES   REMARKS
GERALDTON      CLEAR     54  52  94 N2        30.01R
THUNDER BAY    CLEAR     59  57  94 W5        30.01R
SIOUX LOOKOUT  CLEAR     54  52  94 CALM      30.05R
TORONTO        LGT RAIN  66  64  94 SW6       29.95F
BIG TROUT LK   CLEAR     52  52 100 NW3       30.02S
PICKLE LAKE    NOT AVBL
DRYDEN         CLEAR     63  61  94 N2        30.06R
KENORA         CLEAR     66  57  72 NW6       30.08R
$$
                *** MANITOBA***

CITY           SKY/WX    TMP DP  RH WIND       PRES   REMARKS
BRANDON        CLEAR     59  55  88 NE2       30.12S
DAUPHIN        CLEAR     61  57  88 W7        30.08S
ISLAND LAKE    NOT AVBL
PILOT MOUND      N/A     59  57  94 SW3         N/A
THE PAS        CLEAR     64  59  82 S2        30.03S
THOMPSON       LGT RAIN  63  61  94 S5        30.01F
WINNIPEG       CLEAR     61  57  88 W8        30.08R
LYNN LAKE      PTCLDY    61  59  94 CALM      29.97R
CHURCHILL      PTCLDY    57  54  88 SW6       29.90S
GILLAM         CLEAR     61  52  72 SW7       29.98R
$$
                ***SASKATCHEWAN***

CITY           SKY/WX    TMP DP  RH WIND       PRES   REMARKS
ESTEVAN        PTCLDY    61  54  77 S6        30.12S
KINDERSLEY     PTCLDY    63  52  67 SE12      30.00F
LLOYDMINSTER   CLEAR     59  54  82 SE6       30.00S
PRINCE ALBERT  PTCLDY    54  52  94 E5        30.07R
REGINA         CLEAR     63  52  67 SE14      30.10R
YORKTON        CLEAR     64  57  77 S8        30.10S
N. BATTLEFORD  CLEAR     59  54  82 SE10      30.03S
LA RONGE       MOCLDY    63  55  77 S5        30.00S
SASKATOON      CLEAR     64  55  72 SE10      30.04F
SWIFT CURRENT  CLEAR     63  48  59 SE13      30.05S
$$
NOTE: THESE ARE AUTOMATED STATIONS WITH LIMITED QUALITY CONTROL
      "FAIR" INDICATES FEW OR NO CLOUDS BELOW 12,000 FEET WITH NO
      SIGNIFICANT WEATHER AND/OR OBSTRUCTIONS TO VISIBILITY.
      SKY/WX - SKY CONDITION AND SIGNIFICANT WEATHER.
      TMP - AIR TEMPERATURE.    DP   - DEWPOINT TEMPERATURE.
      RH  - RELATIVE HUMIDITY.  PRES - PRESSURE.
      HX  - HEAT INDEX.         WCI  - WIND CHILL INDEX.
$




USA.gov is the U.S. government's official web portal to all federal, state and local government web resources and services.